| time (UTC) | temp F | wind direction | speed knots | gust knots | rain 1hr in | rain 24hr in | rain mn in | humidity % | barometer mb |
| 20260906192928 | 101 | 23 | 0.9 | 1.7 | 0.00 | 0.00 | 0.00 | 37 | 1015.5 |
| 20260906191929 | 99 | 268 | 1.7 | 2.6 | 0.00 | 0.00 | 0.00 | 40 | 1015.5 |
| 20260906190929 | 101 | 163 | 0.0 | 0.9 | 0.00 | 0.00 | 0.00 | 38 | 1015.8 |
| 20260906185929 | 99 | 0.0 | 0.0 | 0.00 | 0.00 | 0.00 | 40 | 1016.0 | |
| 20260906184948 | 99 | 0.0 | 0.0 | 0.00 | 0.00 | 0.00 | 39 | 1016.1 | |
| 20260906184009 | 98 | 0.0 | 0.0 | 0.00 | 0.00 | 0.00 | 41 | 1016.4 | |
| 20260906182929 | 99 | 230 | 0.9 | 0.9 | 0.00 | 0.00 | 0.00 | 40 | 1016.5 |
| 20260906181929 | 97 | 46 | 1.7 | 1.7 | 0.00 | 0.00 | 0.00 | 43 | 1016.6 |
| 20260906180950 | 97 | 0.0 | 0.0 | 0.00 | 0.00 | 0.00 | 43 | 1016.8 | |
| 20260906175930 | 97 | 292 | 4.3 | 5.2 | 0.00 | 0.00 | 0.00 | 43 | 1017.3 |
| 20260906174933 | 99 | 144 | 2.6 | 2.6 | 0.00 | 0.00 | 0.00 | 41 | 1017.4 |
| 20260906173934 | 98 | 0.0 | 0.0 | 0.00 | 0.00 | 0.00 | 43 | 1017.5 | |
| 20260906172933 | 97 | 0.0 | 0.0 | 0.00 | 0.00 | 0.00 | 44 | 1018.0 | |
| 20260906171934 | 97 | 0.0 | 0.0 | 0.00 | 0.00 | 0.00 | 43 | 1018.1 | |
| 20260906170934 | 96 | 0.0 | 0.0 | 0.00 | 0.00 | 0.00 | 45 | 1018.2 | |
| 20260906165934 | 95 | 0.0 | 0.0 | 0.00 | 0.00 | 0.00 | 46 | 1018.3 | |
| 20260906164934 | 96 | 0.0 | 0.0 | 0.00 | 0.00 | 0.00 | 45 | 1018.3 | |
| 20260906163934 | 97 | 223 | 1.7 | 1.7 | 0.00 | 0.00 | 0.00 | 45 | 1018.2 |
| 20260906162934 | 96 | 263 | 0.9 | 0.9 | 0.00 | 0.00 | 0.00 | 45 | 1018.3 |
| 20260906161935 | 95 | 0.0 | 0.0 | 0.00 | 0.00 | 0.00 | 46 | 1018.3 | |
| 20260906160935 | 94 | 0.0 | 0.0 | 0.00 | 0.00 | 0.00 | 48 | 1018.7 | |
| 20260906155955 | 94 | 0.0 | 0.0 | 0.00 | 0.00 | 0.00 | 47 | 1018.4 | |
| 20260906154936 | 93 | 0.0 | 0.0 | 0.00 | 0.00 | 0.00 | 48 | 1018.4 | |
| 20260906153936 | 93 | 0.0 | 0.0 | 0.00 | 0.00 | 0.00 | 50 | 1018.2 | |
| 20260906152934 | 92 | 0.0 | 0.0 | 0.00 | 0.00 | 0.00 | 51 | 1018.1 | |
| 20260906151934 | 91 | 338 | 1.7 | 1.7 | 0.00 | 0.00 | 0.00 | 51 | 1018.0 |
| 20260906150934 | 89 | 257 | 1.7 | 1.7 | 0.00 | 0.00 | 0.00 | 55 | 1018.2 |
| 20260906145935 | 88 | 0.0 | 0.0 | 0.00 | 0.00 | 0.00 | 59 | 1018.1 | |
| 20260906144935 | 86 | 0.0 | 0.0 | 0.00 | 0.00 | 0.00 | 62 | 1018.0 | |
| 20260906143955 | 85 | 0.0 | 0.0 | 0.00 | 0.00 | 0.00 | 64 | 1018.1 | |
| 20260906142955 | 84 | 0.0 | 0.0 | 0.00 | 0.00 | 0.00 | 67 | 1018.2 | |
| 20260906141936 | 82 | 0.0 | 0.0 | 0.00 | 0.00 | 0.00 | 68 | 1018.1 | |
| 20260906140936 | 80 | 0.0 | 0.0 | 0.00 | 0.00 | 0.00 | 73 | 1018.1 | |
| 20260906135934 | 78 | 0.0 | 0.0 | 0.00 | 0.00 | 0.00 | 76 | 1017.9 | |
| 20260906134935 | 76 | 0.0 | 0.0 | 0.00 | 0.00 | 0.00 | 82 | 1018.1 | |
| 20260906133935 | 75 | 0.0 | 0.0 | 0.00 | 0.00 | 0.00 | 85 | 1018.0 | |
| 20260906132935 | 74 | 0.0 | 0.0 | 0.00 | 0.00 | 0.00 | 86 | 1018.1 | |
| 20260906131935 | 73 | 0.0 | 0.0 | 0.00 | 0.00 | 0.00 | 87 | 1017.6 | |
| 20260906130935 | 72 | 0.0 | 0.0 | 0.00 | 0.00 | 0.00 | 87 | 1017.4 | |
| 20260906125936 | 71 | 0.0 | 0.0 | 0.00 | 0.00 | 0.00 | 88 | 1017.5 | |
| 20260906124936 | 71 | 0.0 | 0.0 | 0.00 | 0.00 | 0.00 | 88 | 1017.5 | |
| 20260906123956 | 70 | 0.0 | 0.0 | 0.00 | 0.00 | 0.00 | 88 | 1017.2 | |
| 20260906123000 | 70 | 0.0 | 0.0 | 0.00 | 0.00 | 0.00 | 88 | 1016.9 | |
| 20260906121929 | 70 | 0.0 | 0.0 | 0.00 | 0.00 | 0.00 | 88 | 1017.0 | |
| 20260906120929 | 70 | 0.0 | 0.0 | 0.00 | 0.00 | 0.00 | 88 | 1016.6 | |
| 20260906115929 | 70 | 0.0 | 0.0 | 0.00 | 0.00 | 0.00 | 88 | 1016.5 | |
| 20260906114929 | 70 | 0.0 | 0.0 | 0.00 | 0.00 | 0.00 | 87 | 1016.5 | |
| 20260906113929 | 70 | 0.0 | 0.0 | 0.00 | 0.00 | 0.00 | 87 | 1016.3 | |
| 20260906112930 | 70 | 0.0 | 0.0 | 0.00 | 0.00 | 0.00 | 87 | 1016.1 | |
| 20260906111930 | 70 | 0.0 | 0.0 | 0.00 | 0.00 | 0.00 | 87 | 1016.0 | |
| 20260906110934 | 70 | 0.0 | 0.0 | 0.00 | 0.00 | 0.00 | 87 | 1016.1 | |
| 20260906105934 | 70 | 0.0 | 0.0 | 0.00 | 0.00 | 0.00 | 87 | 1016.2 | |
| 20260906104934 | 70 | 0.0 | 0.0 | 0.00 | 0.00 | 0.00 | 87 | 1016.4 | |
| 20260906103935 | 71 | 0.0 | 0.0 | 0.00 | 0.00 | 0.00 | 87 | 1016.1 | |
| 20260906103009 | 71 | 0.0 | 0.0 | 0.00 | 0.00 | 0.00 | 86 | 1016.4 | |
| 20260906101929 | 70 | 0.0 | 0.0 | 0.00 | 0.00 | 0.00 | 86 | 1016.5 | |
| 20260906100930 | 70 | 0.0 | 0.0 | 0.00 | 0.00 | 0.00 | 86 | 1016.3 | |
| 20260906095930 | 70 | 0.0 | 0.0 | 0.00 | 0.00 | 0.00 | 86 | 1016.3 | |
| 20260906094934 | 70 | 0.0 | 0.0 | 0.00 | 0.00 | 0.00 | 86 | 1016.4 | |
| 20260906093934 | 71 | 0.0 | 0.0 | 0.00 | 0.00 | 0.00 | 85 | 1016.2 | |
| 20260906092934 | 71 | 0.0 | 0.0 | 0.00 | 0.00 | 0.00 | 85 | 1016.2 | |
| 20260906091934 | 71 | 0.0 | 0.0 | 0.00 | 0.00 | 0.00 | 85 | 1015.9 | |
| 20260906090934 | 71 | 0.0 | 0.0 | 0.00 | 0.00 | 0.00 | 84 | 1015.8 | |
| 20260906085955 | 71 | 0.0 | 0.0 | 0.00 | 0.00 | 0.00 | 85 | 1015.9 | |
| 20260906084935 | 71 | 0.0 | 0.0 | 0.00 | 0.00 | 0.00 | 84 | 1016.0 | |
| 20260906083955 | 72 | 0.0 | 0.0 | 0.00 | 0.00 | 0.00 | 84 | 1016.0 | |
| 20260906082936 | 72 | 0.0 | 0.0 | 0.00 | 0.00 | 0.00 | 84 | 1016.1 | |
| 20260906081936 | 73 | 0.0 | 0.0 | 0.00 | 0.00 | 0.00 | 83 | 1016.1 | |
| 20260906080956 | 73 | 0.0 | 0.0 | 0.00 | 0.00 | 0.00 | 82 | 1016.1 | |
| 20260906075956 | 73 | 0.0 | 0.0 | 0.00 | 0.00 | 0.00 | 82 | 1016.0 | |
| 20260906074940 | 73 | 0.0 | 0.0 | 0.00 | 0.00 | 0.00 | 82 | 1015.8 | |
| 20260906073940 | 73 | 0.0 | 0.0 | 0.00 | 0.00 | 0.00 | 82 | 1015.9 | |
| 20260906072940 | 73 | 0.0 | 0.0 | 0.00 | 0.00 | 0.00 | 81 | 1015.8 | |
| 20260906071940 | 73 | 0.0 | 0.0 | 0.00 | 0.00 | 0.00 | 81 | 1015.4 | |
| 20260906070940 | 73 | 0.0 | 0.0 | 0.00 | 0.00 | 0.00 | 81 | 1015.7 | |
| 20260906070000 | 73 | 0.0 | 0.0 | 0.00 | 0.00 | 0.00 | 81 | 1015.9 | |
| 20260906064940 | 73 | 0.0 | 0.0 | 0.00 | 0.00 | 0.00 | 80 | 1015.6 | |
| 20260906063940 | 74 | 0.0 | 0.0 | 0.00 | 0.00 | 0.00 | 80 | 1015.9 | |
| 20260906062941 | 74 | 0.0 | 0.0 | 0.00 | 0.00 | 0.00 | 78 | 1015.6 | |
| 20260906061941 | 75 | 0.0 | 0.0 | 0.00 | 0.00 | 0.00 | 78 | 1015.7 | |
| 20260906061002 | 75 | 0.0 | 0.0 | 0.00 | 0.00 | 0.00 | 78 | 1015.9 | |
| 20260906055941 | 75 | 0.0 | 0.0 | 0.00 | 0.00 | 0.00 | 78 | 1016.0 | |
| 20260906055001 | 75 | 0.0 | 0.0 | 0.00 | 0.00 | 0.00 | 78 | 1015.9 | |
| 20260906053941 | 75 | 0.0 | 0.0 | 0.00 | 0.00 | 0.00 | 78 | 1015.8 | |
| 20260906052942 | 75 | 0.0 | 0.0 | 0.00 | 0.00 | 0.00 | 77 | 1015.7 | |
| 20260906051946 | 75 | 0.0 | 0.0 | 0.00 | 0.00 | 0.00 | 77 | 1015.8 | |
| 20260906050942 | 76 | 0.0 | 0.0 | 0.00 | 0.00 | 0.00 | 77 | 1015.9 | |
| 20260906050002 | 76 | 0.0 | 0.0 | 0.00 | 0.00 | 0.00 | 76 | 1015.8 | |
| 20260906044942 | 76 | 0.0 | 0.0 | 0.00 | 0.00 | 0.00 | 75 | 1015.9 | |
| 20260906043942 | 77 | 0.0 | 0.0 | 0.00 | 0.00 | 0.00 | 74 | 1015.8 | |
| 20260906043005 | 77 | 0.0 | 0.0 | 0.00 | 0.00 | 0.00 | 74 | 1015.8 | |
| 20260906041946 | 78 | 0.0 | 0.0 | 0.00 | 0.00 | 0.00 | 74 | 1016.0 | |
| 20260906040946 | 78 | 0.0 | 0.0 | 0.00 | 0.00 | 0.00 | 73 | 1015.8 | |
| 20260906035946 | 79 | 0.0 | 0.0 | 0.00 | 0.00 | 0.00 | 72 | 1015.6 | |
| 20260906035006 | 79 | 0.0 | 0.0 | 0.00 | 0.00 | 0.00 | 70 | 1015.9 | |
| 20260906033946 | 80 | 0.0 | 0.0 | 0.00 | 0.00 | 0.00 | 69 | 1015.4 | |
| 20260906033007 | 80 | 0.0 | 0.0 | 0.00 | 0.00 | 0.00 | 68 | 1015.2 | |
| 20260906031950 | 81 | 0.0 | 0.0 | 0.00 | 0.00 | 0.00 | 68 | 1015.3 | |
| 20260906030957 | 81 | 0.0 | 0.0 | 0.00 | 0.00 | 0.00 | 67 | 1015.1 | |
| 20260906025953 | 81 | 0.0 | 0.0 | 0.00 | 0.00 | 0.00 | 66 | 1015.0 | |
| 20260906025034 | 81 | 0.0 | 0.0 | 0.00 | 0.00 | 0.00 | 66 | 1014.8 | |
| 20260906023954 | 81 | 0.0 | 0.0 | 0.00 | 0.00 | 0.00 | 66 | 1014.8 | |
| 20260906022954 | 82 | 0.0 | 0.0 | 0.00 | 0.00 | 0.00 | 66 | 1014.8 | |
| 20260906022014 | 83 | 0.0 | 0.0 | 0.00 | 0.00 | 0.00 | 65 | 1014.6 | |
| 20260906020954 | 83 | 0.0 | 0.0 | 0.00 | 0.00 | 0.00 | 63 | 1014.3 | |
| 20260906020015 | 84 | 0.0 | 0.0 | 0.00 | 0.00 | 0.00 | 62 | 1014.0 | |
| 20260906014958 | 84 | 0.0 | 0.0 | 0.00 | 0.00 | 0.00 | 61 | 1014.1 | |
| 20260906013959 | 85 | 0.0 | 0.0 | 0.00 | 0.00 | 0.00 | 60 | 1013.9 | |
| 20260906012958 | 85 | 0.0 | 0.0 | 0.00 | 0.00 | 0.00 | 58 | 1013.8 | |
| 20260906011959 | 86 | 0.0 | 0.0 | 0.00 | 0.00 | 0.00 | 57 | 1014.0 | |
| 20260906010958 | 86 | 0.0 | 0.0 | 0.00 | 0.00 | 0.00 | 57 | 1013.9 | |
| 20260906010019 | 87 | 0.0 | 0.0 | 0.00 | 0.00 | 0.00 | 56 | 1013.7 | |
| 20260906004959 | 89 | 0.0 | 0.0 | 0.00 | 0.00 | 0.00 | 53 | 1013.6 | |
| 20260906004000 | 90 | 0.0 | 0.0 | 0.00 | 0.00 | 0.00 | 52 | 1013.9 | |
| 20260906003000 | 91 | 0.0 | 0.0 | 0.00 | 0.00 | 0.00 | 50 | 1013.6 | |
| 20260906002110 | 93 | 0.0 | 0.0 | 0.00 | 0.00 | 0.00 | 47 | 1013.7 | |
| 20260906001027 | 94 | 0.0 | 0.0 | 0.00 | 0.00 | 0.00 | 46 | 1013.6 | |
| 20260906000011 | 94 | 0.0 | 0.0 | 0.00 | 0.00 | 0.00 | 44 | 1013.5 | |
| 20260905235011 | 95 | 0.0 | 0.0 | 0.00 | 0.00 | 0.00 | 44 | 1013.7 | |
| 20260905234011 | 96 | 179 | 0.0 | 0.9 | 0.00 | 0.00 | 0.00 | 42 | 1013.6 |
| 20260905233015 | 97 | 0.0 | 0.0 | 0.00 | 0.00 | 0.00 | 41 | 1013.8 | |
| 20260905232018 | 98 | 0.0 | 0.0 | 0.00 | 0.00 | 0.00 | 39 | 1013.7 | |
| 20260905231022 | 99 | 138 | 0.9 | 0.9 | 0.00 | 0.00 | 0.00 | 39 | 1013.6 |
| 20260905230018 | 100 | 0.0 | 0.0 | 0.00 | 0.00 | 0.00 | 38 | 1013.9 | |
| 20260905225019 | 100 | 0.0 | 0.0 | 0.00 | 0.00 | 0.00 | 38 | 1013.7 | |
| 20260905224022 | 101 | 157 | 0.9 | 1.7 | 0.00 | 0.00 | 0.00 | 38 | 1013.5 |
| 20260905222923 | 101 | 76 | 1.7 | 2.6 | 0.00 | 0.00 | 0.00 | 38 | 1013.6 |
| 20260905221943 | 101 | 159 | 1.7 | 1.7 | 0.00 | 0.00 | 0.00 | 38 | 1013.7 |
| 20260905220923 | 102 | 39 | 1.7 | 2.6 | 0.00 | 0.00 | 0.00 | 38 | 1013.5 |
| 20260905215923 | 102 | 161 | 2.6 | 2.6 | 0.00 | 0.00 | 0.00 | 38 | 1013.8 |
| 20260905214924 | 102 | 117 | 1.7 | 2.6 | 0.00 | 0.00 | 0.00 | 37 | 1013.8 |
| 20260905213927 | 102 | 148 | 2.6 | 4.3 | 0.00 | 0.00 | 0.00 | 37 | 1013.5 |
| 20260905212927 | 101 | 164 | 2.6 | 2.6 | 0.00 | 0.00 | 0.00 | 37 | 1013.8 |
| 20260905211927 | 102 | 175 | 2.6 | 4.3 | 0.00 | 0.00 | 0.00 | 38 | 1013.6 |
| 20260905210948 | 101 | 101 | 1.7 | 1.7 | 0.00 | 0.00 | 0.00 | 38 | 1013.7 |
| 20260905205928 | 102 | 165 | 1.7 | 1.7 | 0.00 | 0.00 | 0.00 | 37 | 1014.2 |
| 20260905204928 | 99 | 194 | 0.9 | 1.7 | 0.00 | 0.00 | 0.00 | 41 | 1014.1 |
| 20260905203928 | 102 | 142 | 4.3 | 5.2 | 0.00 | 0.00 | 0.00 | 39 | 1014.1 |
| 20260905202928 | 101 | 68 | 0.9 | 0.9 | 0.00 | 0.00 | 0.00 | 40 | 1014.4 |
| 20260905201928 | 99 | 164 | 1.7 | 2.6 | 0.00 | 0.00 | 0.00 | 41 | 1015.0 |
| 20260905200928 | 99 | 184 | 1.7 | 1.7 | 0.00 | 0.00 | 0.00 | 42 | 1014.6 |
| 20260905195929 | 101 | 137 | 2.6 | 2.6 | 0.00 | 0.00 | 0.00 | 40 | 1015.1 |
| 20260905194929 | 101 | 238 | 2.6 | 2.6 | 0.00 | 0.00 | 0.00 | 41 | 1015.0 |
| 20260905193950 | 99 | 157 | 4.3 | 6.1 | 0.00 | 0.00 | 0.00 | 42 | 1015.1 |